Flag for Germany Weather past 2 weeks in Ellwangen (Jagst), Baden-Württemberg, Germany

Now
53 °F

Light rain. Overcast.


Feels Like: 52 °F
Forecast: 50 / 61 °F
Wind: 5 mph from West

Location: Stoetten

Current Time: May 6, 2015 at 12:32:11 AM

Latest Report: May 5, 2015 at 11:00 PM


Visibility: 9 mi

Pressure: 29.92 "Hg

Humidity: 95%

Dew point: 52 °F

Location of Ellwangen (Jagst)Location

Historic Weather in Ellwangen (Jagst) — Graph

°F

Ellwangen (Jagst) temperature yesterday

Maximum temperature yesterday: 67 °F (at 12:00 PM)
Minimum temperature yesterday: 53 °F (at 10:00 PM)
Average temperature yesterday: 60 °F

Past Weeks' High & Low Weather Summary

 TemperatureHumidityPressure
High67 °F (May 5, 12:00 PM)100% (Apr 28, 12:00 AM)30.38 "Hg (Apr 28, 12:00 AM)
Low34 °F (Apr 23, 6:00 AM)28% (Apr 21, 5:00 PM)29.47 "Hg (Apr 27, 6:00 PM)
Average50 °F75%29.93 "Hg
* Reported Apr 20 11:00 PM — May 5 11:00 PM, Ellwangen (Jagst), Weather by CustomWeather, © 2015

Note: Actual official high and low records may vary slightly from our data, if they occured in-between our weather recording intervals... More about our weather records

Advertising

Ellwangen (Jagst) weather history for previous 24 hours

 ConditionsComfort  
Time TempWeatherWind HumidityBarometerVisibility
11:00 PM
Tue, May 5
53 °FLight rain. Overcast.5 mph95%29.92 "Hg9 mi
10:00 PM53 °FLight rain. Fog.6 mph97%29.90 "Hg4 mi
9:00 PM54 °FSprinkles. Overcast.5 mph95%29.88 "Hg43 mi
8:00 PM55 °FLight rain. Overcast.5 mph87%29.85 "Hg43 mi
7:00 PM57 °FThundershowers. Overcast.9 mph82%29.83 "Hg16 mi
6:00 PM60 °FOvercast.7 mph73%29.80 "Hg16 mi
5:00 PM61 °FOvercast.8 mph73%29.78 "Hg43 mi
4:00 PM62 °FLight rain. Overcast.7 mph68%29.77 "Hg43 mi
3:00 PM64 °FOvercast.8 mph62%29.75 "Hg40 mi
2:00 PM65 °FOvercast.10 mph55%29.72 "Hg43 mi
1:00 PM67 °FOvercast.8 mph64%29.69 "Hg40 mi
12:00 PM67 °FOvercast.7 mph58%29.68 "Hg47 mi
11:00 AM66 °FOvercast.7 mph55%29.67 "Hg47 mi
10:00 AM65 °FOvercast.8 mph55%29.65 "Hg47 mi
9:00 AM62 °FOvercast.6 mph67%29.65 "Hg47 mi
8:00 AM60 °FOvercast.3 mph76%29.65 "Hg47 mi
7:00 AM61 °FOvercast.5 mph73%29.63 "Hg47 mi
6:00 AM62 °FOvercast.6 mph71%29.64 "Hg43 mi
5:00 AM58 °FOvercast.5 mph94%29.66 "Hg22 mi
4:00 AM57 °FOvercast.5 mph99%29.68 "Hg6 mi
3:00 AM56 °FOvercast.6 mph99%29.68 "Hg9 mi
2:00 AM57 °FOvercast.6 mph96%29.70 "Hg16 mi
1:00 AM58 °FLight freezing rain. Overcast.5 mph94%29.73 "Hg19 mi
12:00 AM58 °FOvercast.5 mph91%29.75 "Hg37 mi
Weather by CustomWeather, © 2015

See weather overviewHow to use our weather pages